K8JWL-13 Weather Reports


Display with metric or nautical units.
time (UTC)temp
F
wind
direction
speed
MPH
gust
MPH
rain 1hr
in
rain 24hr
in
rain mn
in
humidity
%
barometer
mb
20260508151747 56 276 3.0 0.0 158.78 0.00 0.00 61 1014.2
20260508151248 55 280 6.0 0.0 158.78 0.00 0.00 62 1014.1
20260508150747 55 295 3.0 0.0 158.78 0.00 0.00 62 1014.3
20260508150247 55 246 5.0 0.0 158.78 0.00 0.00 62 1014.3
20260508145748 55 46 1.0 0.0 158.78 0.00 0.00 62 1014.4
20260508145247 54 252 3.0 0.0 158.78 0.00 0.00 62 1014.5
20260508145013 54 269 3.0 0.0 158.78 0.00 0.00 63 1014.4
20260508144747 54 215 4.0 0.0 158.78 0.00 0.00 62 1014.4
20260508144248 54 269 3.0 0.0 158.78 0.00 0.00 63 1014.4
20260508143248 54 270 2.0 0.0 158.78 0.00 0.00 64 1014.4
20260508142749 54 217 3.0 0.0 158.78 0.00 0.00 64 1014.4
20260508142247 54 233 3.0 0.0 158.78 0.00 0.00 64 1014.3
20260508141747 53 269 3.0 0.0 158.78 0.00 0.00 64 1014.5
20260508141248 53 253 1.0 0.0 158.78 0.00 0.00 63 1014.6
20260508140747 53 256 4.0 0.0 158.78 0.00 0.00 63 1014.6
20260508140247 53 325 3.0 0.0 158.78 0.00 0.00 63 1014.5
20260508135748 53 302 4.0 0.0 158.78 0.00 0.00 63 1014.5
20260508135247 53 86 1.0 0.0 158.78 0.00 0.00 63 1014.4
20260508134747 53 267 1.0 0.0 158.78 0.00 0.00 64 1014.5
20260508134248 53 302 4.0 0.0 158.78 0.00 0.00 63 1014.5
20260508133747 53 281 7.0 0.0 158.78 0.00 0.00 64 1014.5
20260508133247 53 270 6.0 0.0 158.78 0.00 0.00 65 1014.5
20260508132748 53 297 5.0 0.0 158.78 0.00 0.00 65 1014.4
20260508132247 53 245 5.0 0.0 158.78 0.00 0.00 66 1014.4
20260508131747 53 243 4.0 0.0 158.78 0.00 0.00 65 1014.4
20260508131248 52 263 4.0 0.0 158.78 0.00 0.00 65 1014.4
20260508130747 52 301 2.0 0.0 158.78 0.00 0.00 65 1014.4
20260508130247 52 141 0.0 0.0 158.78 0.00 0.00 66 1014.4
20260508125747 52 311 5.0 0.0 158.78 0.00 0.00 66 1014.3
20260508125247 52 274 3.0 0.0 158.78 0.00 0.00 66 1014.3
20260508124747 52 301 6.0 0.0 158.78 0.00 0.00 66 1014.3
20260508124249 52 146 5.0 0.0 158.78 0.00 0.00 67 1014.3
20260508123747 52 271 5.0 0.0 158.78 0.00 0.00 67 1014.4
20260508123247 51 304 10.0 0.0 158.78 0.00 0.00 67 1014.3
20260508122748 51 335 3.0 0.0 158.78 0.00 0.00 69 1014.3
20260508122247 51 263 3.0 0.0 158.78 0.00 0.00 69 1014.2
20260508121747 51 30 1.0 0.0 158.78 0.00 0.00 72 1014.2
20260508121247 50 302 5.0 0.0 158.78 0.00 0.00 71 1014.2
20260508120747 50 285 4.0 0.0 158.78 0.00 0.00 70 1014.2
20260508120247 50 274 3.0 0.0 158.78 0.00 0.00 70 1014.2
20260508115747 50 273 6.0 0.0 158.78 0.00 0.00 70 1014.2
20260508115247 50 207 2.0 0.0 158.78 0.00 0.00 69 1014.2
20260508114747 49 266 3.0 0.0 158.78 0.00 0.00 68 1014.1
20260508114247 49 315 3.0 0.0 158.78 0.00 0.00 69 1014.2
20260508113747 49 262 2.0 0.0 158.78 0.00 0.00 68 1014.0
20260508113247 49 250 4.0 0.0 158.78 0.00 0.00 69 1014.0
20260508112247 49 293 0.0 0.0 158.78 0.00 0.00 69 1013.9
20260508111747 48 255 0.0 0.0 158.78 0.00 0.00 70 1013.8
20260508110747 48 270 3.0 0.0 158.78 0.00 0.00 71 1013.9
20260508105247 47 293 6.0 0.0 158.78 0.00 0.00 71 1013.8
20260508104747 47 1 1.0 0.0 158.78 0.00 0.00 71 1013.8
20260508104247 47 225 0.0 0.0 158.78 0.00 0.00 71 1013.9
20260508103747 47 281 4.0 0.0 158.78 0.00 0.00 71 1013.8
20260508103247 47 290 4.0 0.0 158.78 0.00 0.00 71 1013.8
20260508102747 47 239 2.0 0.0 158.78 0.00 0.00 71 1013.7
20260508102247 47 302 1.0 0.0 158.78 0.00 0.00 71 1013.7
20260508101747 47 308 6.0 0.0 158.78 0.00 0.00 71 1013.6
20260508101247 47 263 4.0 0.0 158.78 0.00 0.00 72 1013.6
20260508100747 47 330 3.0 0.0 158.78 0.00 0.00 71 1013.5
20260508100247 47 259 0.0 0.0 158.78 0.00 0.00 72 1013.5
20260508095747 47 281 2.0 0.0 158.78 0.00 0.00 72 1013.5
20260508095247 47 166 1.0 0.0 158.78 0.00 0.00 73 1013.6
20260508094747 47 246 1.0 0.0 158.78 0.00 0.00 73 1013.5
20260508094247 47 236 0.0 0.0 158.78 0.00 0.00 73 1013.5
20260508093747 47 236 0.0 0.0 158.78 0.00 0.00 73 1013.5
20260508093247 47 236 0.0 0.0 158.78 0.00 0.00 74 1013.5
20260508092247 47 278 2.0 0.0 158.78 0.00 0.00 74 1013.6
20260508091747 47 270 4.0 0.0 158.78 0.00 0.00 75 1013.7
20260508090747 47 236 0.0 0.0 158.78 0.00 0.00 76 1013.8
20260508090247 46 287 0.0 0.0 158.78 0.00 0.00 77 1013.7
20260508085747 46 248 0.0 0.0 158.78 0.00 0.00 77 1013.7
20260508085247 46 330 0.0 0.0 158.78 0.00 0.00 77 1013.8
20260508084747 46 263 0.0 0.0 158.78 0.00 0.00 78 1013.8
20260508084247 46 150 0.0 0.0 158.78 0.00 0.00 79 1013.8
20260508083747 46 211 0.0 0.0 158.78 0.00 0.00 79 1013.8
20260508083249 46 167 0.0 0.0 158.78 0.00 0.00 80 1013.7
20260508082747 47 167 0.0 0.0 158.78 0.00 0.00 80 1013.7
20260508082247 47 167 0.0 0.0 158.78 0.00 0.00 80 1013.7
20260508081747 47 167 0.0 0.0 158.78 0.00 0.00 79 1013.7
20260508081247 47 160 1.0 0.0 158.78 0.00 0.00 79 1013.8
20260508080747 47 336 0.0 0.0 158.78 0.00 0.00 80 1013.7
20260508080247 47 336 0.0 0.0 158.78 0.00 0.00 80 1013.7
20260508075850 47 336 0.0 0.0 158.78 0.00 0.00 80 1013.7
20260508075747 47 336 0.0 0.0 158.78 0.00 0.00 80 1013.7
20260508075247 47 336 0.0 0.0 158.78 0.00 0.00 80 1013.8
20260508074747 48 336 0.0 0.0 158.78 0.00 0.00 80 1013.8
20260508074247 48 336 0.0 0.0 158.78 0.00 0.00 80 1013.8
20260508073247 48 203 0.0 0.0 158.78 0.00 0.00 80 1013.8
20260508072747 48 203 0.0 0.0 158.78 0.00 0.00 80 1013.8
20260508072247 48 203 0.0 0.0 158.78 0.00 0.00 81 1013.8
20260508071747 49 203 0.0 0.0 158.78 0.00 0.00 81 1013.9
20260508071247 49 203 0.0 0.0 158.78 0.00 0.00 81 1013.9
20260508070747 49 203 0.0 0.0 158.78 0.00 0.00 82 1014.1
20260508070247 49 203 0.0 0.0 158.78 0.00 0.00 82 1014.2
20260508065747 49 203 0.0 0.0 158.78 0.00 0.00 81 1014.2
20260508065247 49 198 0.0 0.0 158.78 0.00 0.00 81 1014.2
20260508064747 49 198 0.0 0.0 158.78 0.00 0.00 81 1014.1
20260508063747 49 198 0.0 0.0 158.78 0.00 0.00 80 1014.2
20260508063247 50 134 0.0 0.0 158.78 0.00 0.00 79 1014.3
20260508062747 50 134 0.0 0.0 158.78 0.00 0.00 79 1014.2
20260508062418 50 134 0.0 0.0 158.78 0.00 0.00 78 1014.3
20260508062247 50 134 0.0 0.0 158.78 0.00 0.00 78 1014.3
20260508061747 50 165 2.0 0.0 158.78 0.00 0.00 77 1014.4
20260508061247 50 62 0.0 0.0 158.78 0.00 0.00 77 1014.4
20260508060851 50 91 0.0 0.0 158.78 0.00 0.00 75 1014.7
20260508060747 50 300 0.0 0.0 158.78 0.00 0.00 76 1014.8
20260508060247 50 91 0.0 0.0 158.78 0.00 0.00 75 1014.7
20260508055747 50 252 4.0 0.0 158.78 0.00 0.00 75 1015.0
20260508055458 50 267 0.0 0.0 158.78 0.00 0.00 75 1015.1
20260508055246 50 267 0.0 0.0 158.78 0.00 0.00 75 1015.1
20260508054749 50 62 1.0 0.0 158.78 0.00 0.00 74 1015.2
20260508054247 50 27 7.0 0.0 158.78 0.00 0.00 73 1015.3
20260508053746 50 255 2.0 0.0 158.78 0.00 0.00 75 1015.5
20260508053247 50 179 0.0 0.0 158.78 0.00 0.00 77 1015.2
20260508052747 50 179 0.0 0.0 158.78 0.00 0.00 77 1014.9
20260508052246 50 179 0.0 0.0 158.78 0.00 0.00 77 1014.6
20260508051746 50 179 0.0 0.0 158.78 0.00 0.00 77 1014.4
20260508051247 50 179 0.0 0.0 158.78 0.00 0.00 76 1014.4
20260508050746 50 179 0.0 0.0 158.78 0.00 0.00 76 1014.3
20260508050246 50 179 0.0 0.0 158.78 0.00 0.00 76 1014.3
20260508045747 50 179 0.0 0.0 158.78 0.00 0.00 76 1014.4
20260508045246 50 179 0.0 0.0 158.78 0.00 0.00 77 1014.4
20260508044746 50 179 0.0 0.0 158.78 0.00 0.00 76 1014.4
20260508044247 50 179 0.0 0.0 158.78 0.00 0.00 76 1014.4
20260508043746 50 179 0.0 0.0 158.78 0.00 0.00 76 1014.3
20260508043246 50 179 0.0 0.0 158.78 0.00 0.00 75 1014.3
20260508042247 50 179 0.0 0.0 158.78 0.00 0.00 75 1014.4
20260508041747 50 179 0.0 0.0 158.78 0.00 0.00 75 1014.4
20260508041247 50 191 0.0 0.0 158.78 0.00 0.00 75 1014.5
20260508040247 50 191 0.0 0.0 158.78 0.00 0.00 74 1014.5
20260508035747 50 191 0.0 0.0 158.78 0.00 0.00 74 1014.6
20260508035247 50 191 0.0 0.0 158.78 0.00 0.00 74 1014.6
20260508034247 50 191 0.0 0.0 158.78 0.00 0.00 73 1014.5
20260508033747 50 191 0.0 0.0 158.78 0.00 0.00 72 1014.5
20260508033247 50 191 0.0 0.0 158.78 0.00 0.00 72 1014.5
20260508032747 50 129 0.0 0.0 158.78 0.00 0.00 72 1014.5
20260508032246 51 349 0.0 0.0 158.78 0.00 0.00 72 1014.5
20260508031746 51 359 1.0 0.0 158.78 0.00 0.00 71 1014.4
20260508031247 51 200 0.0 0.0 158.78 0.00 0.00 72 1014.5
20260508030746 51 187 0.0 0.0 158.78 0.00 0.00 72 1014.5
20260508030246 51 187 0.0 0.0 158.78 0.00 0.00 71 1014.6
20260508025747 51 187 0.0 0.0 158.78 0.00 0.00 70 1014.7
20260508025246 51 187 0.0 0.0 158.78 0.00 0.00 68 1014.8
20260508024746 51 187 0.0 0.0 158.78 0.00 0.00 68 1014.6
20260508024247 51 312 0.0 0.0 158.78 0.00 0.00 67 1014.5
20260508023746 52 312 0.0 0.0 158.78 0.00 0.00 68 1014.5
20260508023246 52 312 0.0 0.0 158.78 0.00 0.00 67 1014.5
20260508022749 52 312 0.0 0.0 158.78 0.00 0.00 67 1014.4
20260508022246 52 312 0.0 0.0 158.78 0.00 0.00 66 1014.4
20260508021746 52 312 0.0 0.0 158.78 0.00 0.00 66 1014.4
20260508021247 52 312 0.0 0.0 158.78 0.00 0.00 65 1014.4
20260508020746 52 312 0.0 0.0 158.78 0.00 0.00 65 1014.3
20260508020247 53 312 0.0 0.0 158.78 0.00 0.00 65 1014.3
20260508015747 53 312 0.0 0.0 158.78 0.00 0.00 67 1014.3
20260508014746 53 193 2.0 0.0 158.78 0.00 0.00 62 1014.3
20260508014247 54 193 0.0 0.0 158.78 0.00 0.00 65 1014.5
20260508013746 54 270 2.0 0.0 158.78 0.00 0.00 63 1014.4
20260508012747 54 214 0.0 0.0 158.78 0.00 0.00 68 1014.4
20260508012246 54 263 0.0 0.0 158.78 0.00 0.00 62 1014.3
20260508011748 54 294 0.0 0.0 158.78 0.00 0.00 59 1014.2
20260508011247 55 294 0.0 0.0 158.78 0.00 0.00 56 1014.2
20260508010746 55 294 0.0 0.0 158.78 0.00 0.00 57 1014.1
20260508010247 55 294 0.0 0.0 158.78 0.00 0.00 57 1014.2
20260508005747 56 294 0.0 0.0 158.78 0.00 0.00 55 1014.2
20260508005246 56 294 0.0 0.0 158.78 0.00 0.00 53 1014.2
20260508004746 57 294 0.0 0.0 158.78 0.00 0.00 53 1014.2
20260508002746 58 294 0.0 0.0 158.78 0.00 0.00 48 1014.1
20260508002246 58 294 0.0 0.0 158.78 0.00 0.00 49 1014.0
20260508001746 59 294 0.0 0.0 158.78 0.00 0.00 48 1014.0
20260508001246 59 294 0.0 0.0 158.78 0.00 0.00 46 1013.9
20260508000246 60 294 0.0 0.0 158.78 0.00 0.00 43 1013.8
20260507235748 61 294 0.0 0.0 158.78 0.00 0.00 42 1013.8
20260507234746 62 294 0.0 0.0 158.78 0.00 0.00 42 1013.7
20260507234247 62 294 0.0 0.0 158.78 0.00 0.00 39 1013.7
20260507233246 62 248 0.0 0.0 158.78 0.00 0.00 39 1013.7
20260507232746 62 280 1.0 0.0 158.78 0.00 0.00 37 1013.7
20260507232246 63 177 0.0 0.0 158.78 0.00 0.00 36 1013.6
20260507231746 63 269 2.0 0.0 158.78 0.00 0.00 35 1013.7
20260507231247 63 298 4.0 0.0 158.78 0.00 0.00 35 1013.7
20260507230246 64 266 3.0 0.0 158.78 0.00 0.00 36 1013.7
20260507225747 63 11 1.0 0.0 158.78 0.00 0.00 36 1013.7
20260507225246 64 322 6.0 0.0 158.78 0.00 0.00 36 1013.8
20260507224746 63 267 4.0 0.0 158.78 0.00 0.00 35 1013.8
20260507224247 64 248 6.0 0.0 158.78 0.00 0.00 36 1013.9
20260507223746 63 8 1.0 0.0 158.78 0.00 0.00 37 1013.9
20260507223246 63 10 4.0 0.0 158.78 0.00 0.00 36 1014.0
20260507222929 63 271 3.0 0.0 158.78 0.00 0.00 37 1014.0
20260507222747 63 323 5.0 0.0 158.78 0.00 0.00 37 1014.0
20260507222246 63 271 3.0 0.0 158.78 0.00 0.00 37 1014.0
20260507222039 62 290 2.0 0.0 158.78 0.00 0.00 35 1014.1
20260507221247 62 290 2.0 0.0 158.78 0.00 0.00 35 1014.1
20260507220746 62 328 6.0 0.0 158.78 0.00 0.00 35 1014.1
20260507215747 62 311 4.0 0.0 158.78 0.00 0.00 37 1014.0
20260507215606 63 323 7.0 0.0 158.78 0.00 0.00 35 1014.0
20260507215246 63 323 7.0 0.0 158.78 0.00 0.00 35 1014.0
20260507214746 63 276 7.0 0.0 158.78 0.00 0.00 36 1013.9
20260507213746 63 301 12.0 0.0 158.78 0.00 0.00 39 1013.9
20260507213246 62 280 6.0 0.0 158.78 0.00 0.00 39 1013.8
20260507212746 62 14 4.0 0.0 158.78 0.00 0.00 39 1013.9
20260507212246 63 311 6.0 0.0 158.78 0.00 0.00 37 1013.9
20260507211746 63 335 2.0 0.0 158.78 0.00 0.00 36 1013.8
20260507211246 63 210 2.0 0.0 158.78 0.00 0.00 37 1013.8
20260507210746 62 55 3.0 0.0 158.78 0.00 0.00 38 1013.7
20260507210246 62 349 5.0 0.0 158.78 0.00 0.00 38 1013.7
20260507205746 62 239 0.0 0.0 158.78 0.00 0.00 38 1013.7
20260507205246 62 318 3.0 0.0 158.78 0.00 0.00 36 1013.8
20260507204746 62 300 5.0 0.0 158.78 0.00 0.00 36 1013.8
20260507204246 63 246 3.0 0.0 158.78 0.00 0.00 39 1013.8
20260507203746 62 359 2.0 0.0 158.78 0.00 0.00 34 1013.8
20260507203246 62 231 6.0 0.0 158.78 0.00 0.00 38 1013.7
20260507202813 62 352 9.0 0.0 158.78 0.00 0.00 35 1013.7
20260507202752 63 255 3.0 0.0 158.78 0.00 0.00 37 1013.7
20260507202746 62 0 5.0 0.0 158.78 0.00 0.00 39 1013.7
20260507202246 62 352 9.0 0.0 158.78 0.00 0.00 35 1013.7
20260507201746 63 255 3.0 0.0 158.78 0.00 0.00 37 1013.7
20260507201615 63 288 8.0 0.0 158.78 0.00 0.00 40 1013.7
20260507201246 63 288 8.0 0.0 158.78 0.00 0.00 40 1013.7
20260507200746 62 311 4.0 0.0 158.78 0.00 0.00 43 1013.9
20260507195746 60 25 4.0 0.0 158.78 0.00 0.00 38 1013.8
20260507195246 61 6 4.0 0.0 158.78 0.00 0.00 39 1013.8
20260507194746 61 21 1.0 0.0 158.78 0.00 0.00 40 1013.8
20260507193746 61 179 2.0 0.0 158.78 0.00 0.00 38 1014.0
20260507193246 61 113 3.0 0.0 158.78 0.00 0.00 41 1014.1
20260507192746 61 252 14.0 0.0 158.78 0.00 0.00 40 1014.1
20260507192246 61 330 14.0 0.0 158.78 0.00 0.00 39 1014.1
20260507191746 61 34 5.0 0.0 158.78 0.00 0.00 41 1014.1
20260507190746 62 339 7.0 0.0 158.78 0.00 0.00 41 1014.2
20260507190246 62 278 7.0 0.0 158.78 0.00 0.00 41 1014.1
20260507185746 61 298 7.0 0.0 158.78 0.00 0.00 42 1014.2
20260507185246 61 350 6.0 0.0 158.78 0.00 0.00 39 1014.3
20260507184746 61 359 11.0 0.0 158.78 0.00 0.00 39 1014.2
20260507184246 61 330 9.0 0.0 158.78 0.00 0.00 41 1014.2
20260507183247 62 218 3.0 0.0 158.78 0.00 0.00 41 1014.2
20260507182746 61 323 7.0 0.0 158.78 0.00 0.00 43 1014.3
20260507182246 60 301 11.0 0.0 158.78 0.00 0.00 44 1014.3
20260507181746 60 276 3.0 0.0 158.78 0.00 0.00 43 1014.3
20260507181246 59 312 6.0 0.0 158.78 0.00 0.00 45 1014.3
20260507180746 59 305 8.0 0.0 158.78 0.00 0.00 44 1014.4
20260507180247 58 250 1.0 0.0 158.78 0.00 0.00 46 1014.3
20260507175246 57 20 5.0 0.0 158.78 0.00 0.00 47 1014.3
20260507174746 57 319 5.0 0.0 158.78 0.00 0.00 53 1014.4
20260507174246 57 278 4.0 0.0 158.78 0.00 0.00 49 1014.4
20260507173746 57 301 4.0 0.0 158.78 0.00 0.00 49 1014.5
20260507173246 56 277 3.0 0.0 158.78 0.00 0.00 51 1014.6
20260507172246 56 359 4.0 0.0 158.78 0.00 0.00 51 1014.5
20260507171746 56 277 3.0 0.0 158.78 0.00 0.00 54 1014.6
20260507171246 56 345 8.0 0.0 158.78 0.00 0.00 52 1014.8
20260507170746 55 281 7.0 0.0 158.78 0.00 0.00 50 1014.8
20260507170246 55 274 5.0 0.0 158.78 0.00 0.00 52 1014.9
20260507165746 55 329 9.0 0.0 158.78 0.00 0.00 52 1014.8
20260507164746 55 318 5.0 0.0 158.78 0.00 0.00 54 1014.9
20260507164246 55 269 4.0 0.0 158.78 0.00 0.00 52 1015.0
20260507163745 54 217 7.0 0.0 158.78 0.00 0.00 53 1015.0
20260507163245 54 349 1.0 0.0 158.78 0.00 0.00 52 1015.1
20260507162746 54 35 4.0 0.0 158.78 0.00 0.00 55 1015.0
20260507162246 54 336 5.0 0.0 158.78 0.00 0.00 53 1015.0
20260507161746 54 253 13.0 0.0 158.78 0.00 0.00 49 1015.0
20260507160746 53 11 6.0 0.0 158.78 0.00 0.00 54 1014.9
20260507160246 53 352 5.0 0.0 158.78 0.00 0.00 50 1014.9
20260507155246 53 28 3.0 0.0 158.78 0.00 0.00 52 1014.8
20260507154745 53 326 7.0 0.0 158.78 0.00 0.00 51 1014.8
20260507154246 53 17 3.0 0.0 158.78 0.00 0.00 52 1014.6
20260507153746 52 325 4.0 0.0 158.78 0.00 0.00 50 1014.7
20260507153245 52 305 6.0 0.0 158.78 0.00 0.00 51 1014.6
20260507152748 52 274 11.0 0.0 158.78 0.00 0.00 55 1014.6
20260507152246 52 318 5.0 0.0 158.78 0.00 0.00 51 1014.6